Location: Street
(51.1247°N, 2.7429°W)
Time: 16:00:23
(UTC+01:00)

UWE-3 - Pass Details

Date: 10 April 2023
Orbit: 576 x 669 km, 97.7° (Epoch: 02 June)

Event Time Altitude Azimuth Distance (km) Brightness Sun altitude
Rises 05:20:03 0° 5° (N) 2,943 ? -10.8°
Reaches altitude 10° 05:22:32 10° 354° (N) 2,012 ? -10.4°
Maximum altitude 05:26:11 26° 297° (WNW) 1,209 ? -9.9°
Enters shadow 05:29:13 13° 245° (WSW) 1,782 ? -9.5°
